STARLINK-31921 (59868 NORAD) Tracking and Keplerian Element Data

This shows tracking and keplerian element data for the satellite.

Feedback or suggestion? Click here.




ElementValue
Catalog59868
NameSTARLINK-31921
Epoch Orbit292
Epoch Day159.92757964
Epoch Year2024
RAAN328.15
Inclination43.003
Eccentricity0.00044
Argument of Perigee273.086
Mean Anonmoly86.9515
Mean Motion15.99927393
Decay Rate0.00481168
L11 59868U 24098L 24159.92757964 .00481168 10726-3 91019-3 0 9999
L22 59868 43.0030 328.1500 0004400 273.0860 86.9515 15.99927393 2925



Live tracking and technical data element details for STARLINK-31921 (NORAD 59868). STARLINK-31921 can be tracked NOW for your location showing map with azimuth and elevation plus other details from your city location.







IsCatalogInMostPopularTable: catalog: 59868, numindb: 4
Update: records affected: 1



GetName: 59868 STARLINK-31921

Hit Count: updated at: Tue, 16 Jul 2024 03:52:49 GMT